Chrysopouli, Greece

12:24 PM EET on January 16, 2018 (GMT +0200)
Megas Alexandros

Weather History for LGKV - March, 2014

Change the Weather History Date:

Monday, March 31, 2014

  Actual Average Record
Temperature  
Mean Temperature 49 °F -  
Max Temperature 59 °F 55 °F 67 °F (2017)
Min Temperature 39 °F 41 °F 37 °F (1998)
Degree Days  
Heating Degree Days 16    
Moisture  
Dew Point 44 °F    
Average Humidity 79    
Maximum Humidity 88    
Minimum Humidity 63    
Precipitation  
Precipitation 0.00 in - - ()
Sea Level Pressure  
Sea Level Pressure 29.94 in    
Wind  
Wind Speed 2 mph ()    
Max Wind Speed 8 mph    
Max Gust Speed -    
Visibility 6.2 miles    
Events      
Averages and records for this station are not official NWS values.
T = Trace of Precipitation, MM = Missing Value Source: Averaged Metar Reports

Daily Weather History Graph

Daily Weather History Graph

Search for Another Location

Airport or City:

Trip Planner

Search our weather history database for the weather conditions in past years. The results will help you decide how hot, cold, wet, or windy it might be!

Date:

Astronomy

Mar. 31, 2014 Rise Set
Actual Time 7:07 AM EEST 7:45 PM EEST
Civil Twilight 6:39 AM EEST 8:12 PM EEST
Nautical Twilight 6:06 AM EEST 8:45 PM EEST
Astronomical Twilight 5:33 AM EEST 9:19 PM EEST
Moon 7:18 AM EEST (3/31) 8:43 PM EEST (3/31)
Length of Visible Light 13h 33m
Length of Day
12h 38m
New Moon, 0% of the Moon is Illuminated
Mar 31
New Moon
Apr 7
First Quarter
Apr 15
Full
Apr 22
Last Quarter
Apr 29
New

Hourly Weather History & Observations

Time (EEST) Temp. Windchill Dew Point Humidity Pressure Visibility Wind Dir Wind Speed Gust Speed Precip Events Conditions
12:50 AM 42.8 °F - 37.4 °F 81% 30.09 in - Calm Calm - N/A   Clear
1:50 AM 41.0 °F 38.0 °F 35.6 °F 81% 30.06 in - NE 4.6 mph - N/A   Clear
2:50 AM 41.0 °F - 37.4 °F 87% 30.04 in - Calm Calm - N/A   Clear
3:50 AM 39.2 °F - 35.6 °F 87% 30.01 in - Calm Calm - N/A   Clear
4:50 AM 39.2 °F - 35.6 °F 87% 30.01 in - Calm Calm - N/A   Clear
5:50 AM 39.2 °F - 35.6 °F 87% 29.98 in - Calm Calm - N/A   Clear
6:20 AM 39.2 °F - 35.6 °F 87% 29.98 in - Calm Calm - N/A   Clear
6:50 AM 39.2 °F 35.0 °F 35.6 °F 87% 29.98 in - East 5.8 mph - N/A   Clear
7:20 AM 39.2 °F 35.9 °F 35.6 °F 87% 29.98 in - ENE 4.6 mph - N/A   Clear
7:50 AM 39.2 °F 35.9 °F 35.6 °F 87% 29.98 in - ENE 4.6 mph - N/A   Clear
8:20 AM 42.8 °F 40.1 °F 39.2 °F 87% 29.98 in - NE 4.6 mph - N/A   Clear
8:50 AM 44.6 °F 41.4 °F 39.2 °F 81% 29.98 in - NE 5.8 mph - N/A   Clear
9:20 AM 44.6 °F 41.4 °F 39.2 °F 81% 29.98 in - NE 5.8 mph - N/A   Clear
9:50 AM 51.8 °F - 42.8 °F 71% 29.98 in - Calm Calm - N/A   Clear
10:20 AM 51.8 °F - 42.8 °F 71% 29.98 in - Calm Calm - N/A   Clear
10:50 AM 53.6 °F - 44.6 °F 72% 29.98 in - Calm Calm - N/A   Clear
11:20 AM 53.6 °F - 44.6 °F 72% 29.98 in - South 4.6 mph - N/A   Clear
11:50 AM 55.4 °F - 46.4 °F 72% 29.98 in 6.2 mi South 5.8 mph - N/A   Partly Cloudy
12:20 PM 55.4 °F - 46.4 °F 72% 29.98 in 6.2 mi South 5.8 mph - N/A   Partly Cloudy
12:50 PM 57.2 °F - 48.2 °F 72% 29.95 in - SSW 6.9 mph - N/A   Clear
1:20 PM 57.2 °F - 48.2 °F 72% 29.95 in - SSW 8.1 mph - N/A   Clear
1:50 PM 57.2 °F - 46.4 °F 67% 29.95 in 6.2 mi SSW 6.9 mph - N/A   Partly Cloudy
2:20 PM 57.2 °F - 46.4 °F 67% 29.95 in 6.2 mi SSW 6.9 mph - N/A   Partly Cloudy
2:50 PM 59.0 °F - 46.4 °F 63% 29.92 in 6.2 mi SSW 6.9 mph - N/A   Partly Cloudy
3:20 PM 59.0 °F - 46.4 °F 63% 29.92 in 6.2 mi SSW 6.9 mph - N/A   Partly Cloudy
3:50 PM 57.2 °F - 46.4 °F 67% 29.89 in - SSW 6.9 mph - N/A   Clear
4:20 PM 57.2 °F - 46.4 °F 67% 29.89 in - SSW 6.9 mph - N/A   Clear
4:50 PM 57.2 °F - 48.2 °F 72% 29.89 in 6.2 mi SSW 6.9 mph - N/A   Partly Cloudy
5:20 PM 57.2 °F - 48.2 °F 72% 29.86 in 6.2 mi SSW 5.8 mph - N/A   Partly Cloudy
5:50 PM 57.2 °F - 48.2 °F 72% 29.86 in 6.2 mi Calm Calm - N/A   Partly Cloudy
6:20 PM 57.2 °F - 48.2 °F 72% 29.86 in 6.2 mi Calm Calm - N/A   Partly Cloudy
6:50 PM 55.4 °F - 50.0 °F 82% 29.86 in - Calm Calm - N/A   Clear
7:20 PM 55.4 °F - 50.0 °F 82% 29.86 in - Calm Calm - N/A   Clear
7:50 PM 53.6 °F - 48.2 °F 82% 29.86 in - Calm Calm - N/A   Clear
8:20 PM 53.6 °F - 48.2 °F 82% 29.86 in - Calm Calm - N/A   Clear
8:50 PM 51.8 °F - 48.2 °F 88% 29.86 in - Calm Calm - N/A   Clear
9:20 PM 51.8 °F - 48.2 °F 88% 29.86 in - Calm Calm - N/A   Clear
9:50 PM 50.0 °F - 46.4 °F 87% 29.86 in - Calm Calm - N/A   Clear
10:20 PM 50.0 °F - 46.4 °F 87% 29.86 in - Calm Calm - N/A   Clear
10:50 PM 50.0 °F - 46.4 °F 87% 29.86 in - Calm Calm - N/A   Clear
11:20 PM 50.0 °F - 46.4 °F 87% 29.86 in - Calm Calm - N/A   Clear
11:50 PM 48.2 °F - 44.6 °F 87% 29.86 in - Calm Calm - N/A   Clear